Year,Month,Day,Hour,Minute,Value (Times are PST for temperature in C)
2013,03,24,10,43,3.90
2013,03,24,10,44,3.90
2013,03,24,10,45,3.90
2013,03,24,10,46,3.90
2013,03,24,10,47,4.00
2013,03,24,10,48,4.00
2013,03,24,10,49,4.00
2013,03,24,10,50,4.00
2013,03,24,10,51,3.90
2013,03,24,10,52,4.00
2013,03,24,10,53,4.00
2013,03,24,10,54,4.00
2013,03,24,10,55,4.00
2013,03,24,10,56,4.00
2013,03,24,10,57,4.00
2013,03,24,10,58,4.10
2013,03,24,10,59,4.10
2013,03,24,11,00,4.10
2013,03,24,11,01,4.00
2013,03,24,11,02,4.00
2013,03,24,11,03,4.00
2013,03,24,11,04,4.00
2013,03,24,11,05,4.00
2013,03,24,11,06,4.00
2013,03,24,11,07,4.00
2013,03,24,11,08,4.00
2013,03,24,11,09,4.10
2013,03,24,11,10,4.10
2013,03,24,11,11,4.10
2013,03,24,11,12,4.10
2013,03,24,11,13,4.10
2013,03,24,11,14,4.10
2013,03,24,11,15,4.10
2013,03,24,11,16,4.10
2013,03,24,11,17,4.10
2013,03,24,11,18,4.10
2013,03,24,11,19,4.10
2013,03,24,11,20,4.10
2013,03,24,11,21,4.10
2013,03,24,11,22,4.00
2013,03,24,11,23,4.00
2013,03,24,11,24,4.00
2013,03,24,11,25,4.00
2013,03,24,11,26,4.00
2013,03,24,11,27,4.00
2013,03,24,11,28,4.00
2013,03,24,11,29,4.00
2013,03,24,11,30,4.10
2013,03,24,11,31,4.10
2013,03,24,11,32,4.10
2013,03,24,11,33,4.20
2013,03,24,11,34,4.20
2013,03,24,11,35,4.20
2013,03,24,11,36,4.20
2013,03,24,11,37,4.20
2013,03,24,11,38,4.30
2013,03,24,11,39,4.30
2013,03,24,11,40,4.40
2013,03,24,11,41,4.40
2013,03,24,11,42,4.40
2013,03,24,11,43,4.40
2013,03,24,11,44,4.40
2013,03,24,11,45,4.40
2013,03,24,11,46,4.30
2013,03,24,11,47,4.30
2013,03,24,11,48,4.30
2013,03,24,11,49,4.30
2013,03,24,11,50,4.40
2013,03,24,11,51,4.40
2013,03,24,11,52,4.40
2013,03,24,11,53,4.40
2013,03,24,11,54,4.50
2013,03,24,11,55,4.50
2013,03,24,11,56,4.50
2013,03,24,11,57,4.50
2013,03,24,11,58,4.50
2013,03,24,11,59,4.50
2013,03,24,12,00,4.50
2013,03,24,12,01,4.50
2013,03,24,12,02,4.60
2013,03,24,12,03,4.60
2013,03,24,12,04,4.60
2013,03,24,12,05,4.60
2013,03,24,12,06,4.60
2013,03,24,12,07,4.60
2013,03,24,12,08,4.60
2013,03,24,12,09,4.60
2013,03,24,12,10,4.60
2013,03,24,12,11,4.70
2013,03,24,12,12,4.70
2013,03,24,12,13,4.80
2013,03,24,12,14,4.80
2013,03,24,12,15,4.80
2013,03,24,12,16,4.80
2013,03,24,12,17,4.80
2013,03,24,12,18,4.80
2013,03,24,12,19,4.90
2013,03,24,12,20,4.90
2013,03,24,12,21,4.90
2013,03,24,12,22,4.90
2013,03,24,12,23,4.90
2013,03,24,12,24,4.90
2013,03,24,12,25,4.90
2013,03,24,12,26,4.90
2013,03,24,12,27,4.90
2013,03,24,12,28,4.90
2013,03,24,12,29,4.90
2013,03,24,12,30,5.00
2013,03,24,12,31,5.10
2013,03,24,12,32,5.10
2013,03,24,12,33,5.10
2013,03,24,12,34,5.10
2013,03,24,12,35,5.10
2013,03,24,12,36,4.90
2013,03,24,12,37,4.90
2013,03,24,12,38,4.90
2013,03,24,12,39,4.90
2013,03,24,12,40,4.90
2013,03,24,12,41,4.90
2013,03,24,12,42,4.90
2013,03,24,12,43,4.90
2013,03,24,12,44,5.00
2013,03,24,12,45,5.10
2013,03,24,12,46,5.10
2013,03,24,12,47,5.10
2013,03,24,12,48,5.00
2013,03,24,12,49,5.00
2013,03,24,12,50,5.10
2013,03,24,12,51,5.10
2013,03,24,12,52,5.10
2013,03,24,12,53,5.10
2013,03,24,12,54,5.10
2013,03,24,12,55,5.10
2013,03,24,12,56,5.10
2013,03,24,12,57,5.10
2013,03,24,12,58,5.10
2013,03,24,12,59,5.10
2013,03,24,13,00,5.10
2013,03,24,13,01,5.10
2013,03,24,13,02,5.10
2013,03,24,13,03,5.10
2013,03,24,13,04,5.20
2013,03,24,13,05,5.20
2013,03,24,13,06,5.30
2013,03,24,13,07,5.30
2013,03,24,13,08,5.30
2013,03,24,13,09,5.30
2013,03,24,13,10,5.30
2013,03,24,13,11,5.40
2013,03,24,13,12,5.40
2013,03,24,13,13,5.50
2013,03,24,13,14,5.50
2013,03,24,13,15,5.50
2013,03,24,13,16,5.50
2013,03,24,13,17,5.50
2013,03,24,13,18,5.50
2013,03,24,13,19,5.60
2013,03,24,13,20,5.60
2013,03,24,13,21,5.70
2013,03,24,13,22,5.70
2013,03,24,13,23,5.60
2013,03,24,13,24,5.60
2013,03,24,13,25,5.70
2013,03,24,13,26,5.70
2013,03,24,13,27,5.60
2013,03,24,13,28,5.60
2013,03,24,13,29,5.60
2013,03,24,13,30,5.60
2013,03,24,13,31,5.60
2013,03,24,13,32,5.60
2013,03,24,13,33,5.50
2013,03,24,13,34,5.50
2013,03,24,13,35,5.50
2013,03,24,13,36,5.50
2013,03,24,13,37,5.60
2013,03,24,13,38,5.60
2013,03,24,13,39,5.70
2013,03,24,13,40,5.70
2013,03,24,13,41,5.70
2013,03,24,13,42,5.70
2013,03,24,13,43,5.80
2013,03,24,13,44,5.80
2013,03,24,13,45,5.80
2013,03,24,13,46,5.80
2013,03,24,13,47,5.80
2013,03,24,13,48,5.80
2013,03,24,13,49,5.90
2013,03,24,13,50,5.90
2013,03,24,13,51,6.00
2013,03,24,13,52,6.10
2013,03,24,13,53,6.10
2013,03,24,13,54,6.20
2013,03,24,13,55,6.20
2013,03,24,13,56,6.10
2013,03,24,13,57,6.20
2013,03,24,13,58,6.20
2013,03,24,13,59,6.20
2013,03,24,14,00,6.20
2013,03,24,14,01,6.20
2013,03,24,14,02,6.20
2013,03,24,14,03,6.20
2013,03,24,14,04,6.20
2013,03,24,14,05,6.10
2013,03,24,14,06,6.10
2013,03,24,14,07,6.10
2013,03,24,14,08,6.10
2013,03,24,14,09,6.10
2013,03,24,14,10,6.10
2013,03,24,14,11,6.00
2013,03,24,14,12,6.00
2013,03,24,14,13,6.00
2013,03,24,14,14,6.00
2013,03,24,14,15,6.00
2013,03,24,14,16,6.10
2013,03,24,14,17,6.10
2013,03,24,14,18,6.10
2013,03,24,14,19,6.10
2013,03,24,14,20,6.10
2013,03,24,14,21,6.20
2013,03,24,14,22,6.10
2013,03,24,14,23,6.10
2013,03,24,14,24,6.00
2013,03,24,14,25,6.00
2013,03,24,14,26,6.10
2013,03,24,14,27,6.10
2013,03,24,14,28,6.10
2013,03,24,14,29,6.10
2013,03,24,14,30,6.10
2013,03,24,14,31,6.10
2013,03,24,14,32,6.10
2013,03,24,14,33,6.10
2013,03,24,14,34,6.20
2013,03,24,14,35,6.20
2013,03,24,14,36,6.20
2013,03,24,14,37,6.20
2013,03,24,14,38,6.20
2013,03,24,14,39,6.20
2013,03,24,14,40,6.30
2013,03,24,14,41,6.40
2013,03,24,14,42,6.40
2013,03,24,14,43,6.50
2013,03,24,14,44,6.60
2013,03,24,14,45,6.60
2013,03,24,14,46,6.60
2013,03,24,14,47,6.70
2013,03,24,14,48,6.70
2013,03,24,14,49,6.80
2013,03,24,14,50,6.80
2013,03,24,14,51,6.80
2013,03,24,14,52,6.90
2013,03,24,14,53,7.00
2013,03,24,14,54,7.00
2013,03,24,14,55,7.00
2013,03,24,14,56,7.00
2013,03,24,14,57,7.00
2013,03,24,14,58,7.10
2013,03,24,14,59,7.10
2013,03,24,15,00,7.20
2013,03,24,15,01,7.20
2013,03,24,15,02,7.20
2013,03,24,15,03,7.10
2013,03,24,15,04,7.20
2013,03,24,15,05,7.10
2013,03,24,15,06,7.10
2013,03,24,15,07,7.10
2013,03,24,15,08,7.20
2013,03,24,15,09,7.30
2013,03,24,15,10,7.30
2013,03,24,15,11,7.20
2013,03,24,15,12,7.20
2013,03,24,15,13,7.10
2013,03,24,15,14,7.00
2013,03,24,15,15,6.90
2013,03,24,15,16,6.80
2013,03,24,15,17,6.80
2013,03,24,15,18,6.80
2013,03,24,15,19,6.90
2013,03,24,15,20,7.00
2013,03,24,15,21,7.00
2013,03,24,15,22,7.10
2013,03,24,15,23,7.10
2013,03,24,15,24,7.10
2013,03,24,15,25,7.10
2013,03,24,15,26,7.10
2013,03,24,15,27,7.20
2013,03,24,15,28,7.20
2013,03,24,15,29,7.10
2013,03,24,15,30,7.10
2013,03,24,15,31,7.20
2013,03,24,15,32,7.20
2013,03,24,15,33,7.20
2013,03,24,15,34,7.30
2013,03,24,15,35,7.30
2013,03,24,15,36,7.30
2013,03,24,15,37,7.30
2013,03,24,15,38,7.30
2013,03,24,15,39,7.20
2013,03,24,15,40,7.20
2013,03,24,15,41,7.20
2013,03,24,15,42,7.20
2013,03,24,15,43,7.30
2013,03,24,15,44,7.30
2013,03,24,15,45,7.30
2013,03,24,15,46,7.30
2013,03,24,15,47,7.30
2013,03,24,15,48,7.30
2013,03,24,15,49,7.30
2013,03,24,15,50,7.20
2013,03,24,15,51,7.20
2013,03,24,15,52,7.10
2013,03,24,15,53,7.10
2013,03,24,15,54,7.20
2013,03,24,15,55,7.30
2013,03,24,15,56,7.30
2013,03,24,15,57,7.30
2013,03,24,15,58,7.30
2013,03,24,15,59,7.30
2013,03,24,16,00,7.20
2013,03,24,16,01,7.20
2013,03,24,16,02,7.10
2013,03,24,16,03,7.10
2013,03,24,16,04,7.10
2013,03,24,16,05,7.00
2013,03,24,16,06,7.00
2013,03,24,16,07,6.90
2013,03,24,16,08,7.00
2013,03,24,16,09,7.00
2013,03,24,16,10,7.10
2013,03,24,16,11,7.20
2013,03,24,16,12,7.30
2013,03,24,16,13,7.30
2013,03,24,16,14,7.30
2013,03,24,16,15,7.30
2013,03,24,16,16,7.30
2013,03,24,16,17,7.30
2013,03,24,16,18,7.30
2013,03,24,16,19,7.30
2013,03,24,16,20,7.20
2013,03,24,16,21,7.20
2013,03,24,16,22,7.20
2013,03,24,16,23,7.20
2013,03,24,16,24,7.20
2013,03,24,16,25,7.20
2013,03,24,16,26,7.20
2013,03,24,16,27,7.20
2013,03,24,16,28,7.20
2013,03,24,16,29,7.20
2013,03,24,16,30,7.20
2013,03,24,16,31,7.20
2013,03,24,16,32,7.20
2013,03,24,16,33,7.20
2013,03,24,16,34,7.20
2013,03,24,16,35,7.20
2013,03,24,16,36,7.30
2013,03,24,16,37,7.30
2013,03,24,16,38,7.30
2013,03,24,16,39,7.30
2013,03,24,16,40,7.30
2013,03,24,16,41,7.30
2013,03,24,16,42,7.30
2013,03,24,16,43,7.40
2013,03,24,16,44,7.40
2013,03,24,16,45,7.40
2013,03,24,16,46,7.40
2013,03,24,16,47,7.50
2013,03,24,16,48,7.50
2013,03,24,16,49,7.40
2013,03,24,16,50,7.40
2013,03,24,16,51,7.40
2013,03,24,16,52,7.50
2013,03,24,16,53,7.50
2013,03,24,16,54,7.50
2013,03,24,16,55,7.50
2013,03,24,16,56,7.50
2013,03,24,16,57,7.40
2013,03,24,16,58,7.30
2013,03,24,16,59,7.30
2013,03,24,17,00,7.30
2013,03,24,17,01,7.30
2013,03,24,17,02,7.30
2013,03,24,17,03,7.30
2013,03,24,17,04,7.40
2013,03,24,17,05,7.40
2013,03,24,17,06,7.40
2013,03,24,17,07,7.40
2013,03,24,17,08,7.40
2013,03,24,17,09,7.40
2013,03,24,17,10,7.40
2013,03,24,17,11,7.30
2013,03,24,17,12,7.30
2013,03,24,17,13,7.30
2013,03,24,17,14,7.30
2013,03,24,17,15,7.30
2013,03,24,17,16,7.30
2013,03,24,17,17,7.30
2013,03,24,17,18,7.30
2013,03,24,17,19,7.30
2013,03,24,17,20,7.30
2013,03,24,17,21,7.30
2013,03,24,17,22,7.30
2013,03,24,17,23,7.30
2013,03,24,17,24,7.30
2013,03,24,17,25,7.30
2013,03,24,17,26,7.30
2013,03,24,17,27,7.30
2013,03,24,17,28,7.20
2013,03,24,17,29,7.20
2013,03,24,17,30,7.10
2013,03,24,17,31,7.10
2013,03,24,17,32,7.10
2013,03,24,17,33,7.10
2013,03,24,17,34,7.10
2013,03,24,17,35,7.10
2013,03,24,17,36,7.10
2013,03,24,17,37,7.10
2013,03,24,17,38,7.10
2013,03,24,17,39,7.10
2013,03,24,17,40,7.00
2013,03,24,17,41,7.10
2013,03,24,17,42,7.10
2013,03,24,17,43,7.10
2013,03,24,17,44,7.10
2013,03,24,17,45,7.10
2013,03,24,17,46,7.10
2013,03,24,17,47,7.10
2013,03,24,17,48,7.10
2013,03,24,17,49,7.10
2013,03,24,17,50,7.10
2013,03,24,17,51,7.10
2013,03,24,17,52,7.00
2013,03,24,17,53,7.00
2013,03,24,17,54,7.00
2013,03,24,17,55,7.00
2013,03,24,17,56,7.00
2013,03,24,17,57,7.00
2013,03,24,17,58,7.00
2013,03,24,17,59,7.00
2013,03,24,18,00,7.00
2013,03,24,18,01,7.00
2013,03,24,18,02,7.00
2013,03,24,18,03,7.10
2013,03,24,18,04,7.10
2013,03,24,18,05,7.10
2013,03,24,18,06,7.10
2013,03,24,18,07,7.10
2013,03,24,18,08,7.10
2013,03,24,18,09,7.10
2013,03,24,18,10,7.10
2013,03,24,18,11,7.10
2013,03,24,18,12,7.10
2013,03,24,18,13,7.10
2013,03,24,18,14,7.10
2013,03,24,18,15,7.10
2013,03,24,18,16,7.10
